Harrison, AR

5:04 PM CST on November 23, 2017 (GMT -0600)
Boone County

Weather History for KHRO - December, 2013

Change the Weather History Date:

Sunday, December 8, 2013

  Actual Average Record
Temperature  
Mean Temperature 23 °F 40 °F  
Max Temperature 28 °F 49 °F 77 °F (1904)
Min Temperature 17 °F 30 °F -5 °F (1917)
Degree Days  
Heating Degree Days 42 25  
Month to date heating degree days 227 193  
Since 1 July heating degree days 1040 957  
Cooling Degree Days 0 0  
Month to date cooling degree days 0 0  
Year to date cooling degree days 1414 1416  
Moisture  
Dew Point 20 °F    
Average Humidity 84    
Maximum Humidity 100    
Minimum Humidity 67    
Precipitation  
Precipitation 0.01 in 0.12 in 1.95 in (1994)
Month to date precipitation 1.49 0.96  
Year to date precipitation 43.00 41.90  
Snow  
Snow 0.00 in 0.00 in 2.50 in (1989)
Month to date snowfall 9.0 0.0  
Since 1 July snowfall 9.0 0.5  
Snow Depth 5.00 in    
Sea Level Pressure  
Sea Level Pressure 30.11 in    
Wind  
Wind Speed 5 mph (SE)    
Max Wind Speed 20 mph    
Max Gust Speed 24 mph    
Visibility 5 miles    
Events Rain    
T = Trace of Precipitation, MM = Missing Value Source: NWS Daily Summary

Daily Weather History Graph

Daily Weather History Graph

Search for Another Location

Airport or City:

Trip Planner

Search our weather history database for the weather conditions in past years. The results will help you decide how hot, cold, wet, or windy it might be!

Date:

Astronomy

Dec. 08, 2013 Rise Set
Actual Time 7:11 AM CST 4:57 PM CST
Civil Twilight 6:43 AM CST 5:26 PM CST
Nautical Twilight 6:11 AM CST 5:58 PM CST
Astronomical Twilight 5:39 AM CST 6:29 PM CST
Moon 11:40 AM CST (12/8) 11:38 PM CST (12/8)
Length of Visible Light 10h 43m
Length of Day
9h 46m
Waxing Crescent, 40% of the Moon is Illuminated
Dec 8
Waxing Crescent
Dec 9
First Quarter
Dec 17
Full
Dec 25
Last Quarter
Jan 1
New

Hourly Weather History & Observations

Time (CST) Temp. Windchill Dew Point Humidity Pressure Visibility Wind Dir Wind Speed Gust Speed Precip Events Conditions
12:53 AM 19.0 °F 8.2 °F 10.9 °F 71% 30.32 in 10.0 mi SE 9.2 mph - N/A   Overcast
1:53 AM 18.0 °F 6.9 °F 10.0 °F 71% 30.28 in 10.0 mi ESE 9.2 mph - N/A   Overcast
2:53 AM 18.0 °F - 12.0 °F 78% 30.26 in 7.0 mi North - - 0.00 in   Overcast
3:08 AM 17.6 °F 7.3 °F 12.2 °F 79% 30.20 in 4.0 mi East 8.1 mph - 0.00 in Rain Light Freezing Rain
3:42 AM 17.6 °F 5.7 °F 14.0 °F 86% 30.17 in 4.0 mi ESE 10.4 mph - 0.01 in Rain Light Freezing Rain
3:53 AM 17.1 °F 5.0 °F 15.1 °F 92% 30.23 in 3.0 mi SE 10.4 mph - 0.01 in Rain Light Freezing Rain
4:53 AM 17.1 °F 6.6 °F 15.1 °F 92% 30.22 in 5.0 mi ESE 8.1 mph - 0.00 in Rain Light Freezing Rain
5:11 AM 17.6 °F 7.3 °F 15.8 °F 93% 30.15 in 6.0 mi ESE 8.1 mph - 0.00 in   Overcast
5:53 AM 17.1 °F 11.7 °F 15.1 °F 92% 30.22 in 6.0 mi ESE 3.5 mph - 0.00 in   Overcast
6:24 AM 17.6 °F 8.2 °F 15.8 °F 93% 30.15 in 3.0 mi ESE 6.9 mph - N/A   Overcast
6:53 AM 17.1 °F 7.6 °F 15.1 °F 92% 30.20 in 4.0 mi ESE 6.9 mph - N/A   Overcast
7:53 AM 17.1 °F 10.0 °F 15.1 °F 92% 30.20 in 4.0 mi ESE 4.6 mph - N/A   Overcast
8:53 AM 17.1 °F 7.6 °F 16.0 °F 96% 30.18 in 5.0 mi ESE 6.9 mph - N/A   Overcast
9:53 AM 18.0 °F 12.7 °F 17.1 °F 96% 30.19 in 5.0 mi SE 3.5 mph - N/A   Overcast
10:53 AM 19.9 °F 13.4 °F 17.1 °F 89% 30.16 in 5.0 mi SE 4.6 mph - N/A   Overcast
11:53 AM 21.0 °F 12.4 °F 19.0 °F 92% 30.12 in 5.0 mi SSE 6.9 mph - N/A   Overcast
12:34 PM 21.2 °F 13.6 °F 19.4 °F 93% 30.02 in 2.0 mi SE 5.8 mph - N/A   Overcast
12:42 PM 21.2 °F 14.9 °F 19.4 °F 93% 30.02 in 1.8 mi SE 4.6 mph - N/A   Overcast
12:53 PM 21.9 °F 15.7 °F 19.9 °F 92% 30.07 in 2.0 mi SE 4.6 mph - N/A   Overcast
1:32 PM 23.0 °F 14.7 °F 21.2 °F 93% 29.99 in 3.0 mi SSE 6.9 mph - N/A   Overcast
1:53 PM 24.1 °F 17.0 °F 23.0 °F 96% 30.04 in 5.0 mi SE 5.8 mph - N/A   Overcast
2:02 PM 24.8 °F 19.1 °F 21.2 °F 86% 30.00 in 5.0 mi SSE 4.6 mph - N/A   Overcast
2:35 PM 24.8 °F - 23.0 °F 93% 29.99 in 7.0 mi Calm Calm - N/A   Overcast
2:53 PM 25.0 °F - 23.0 °F 92% 30.05 in 8.0 mi Calm Calm - N/A   Overcast
3:53 PM 26.1 °F 20.5 °F 24.1 °F 92% 30.05 in 7.0 mi SSE 4.6 mph - N/A   Overcast
4:15 PM 26.6 °F 21.2 °F 24.8 °F 93% 30.00 in 5.0 mi SSE 4.6 mph - N/A   Overcast
4:40 PM 26.6 °F 20.0 °F 24.8 °F 93% 30.01 in 2.0 mi SE 5.8 mph - N/A   Overcast
4:53 PM 26.1 °F 20.5 °F 25.0 °F 96% 30.06 in 2.0 mi SE 4.6 mph - N/A   Overcast
5:16 PM 26.6 °F 21.2 °F 24.8 °F 93% 30.01 in 3.0 mi SSE 4.6 mph - N/A   Overcast
5:25 PM 26.6 °F 21.2 °F 24.8 °F 93% 30.01 in 2.5 mi South 4.6 mph - N/A   Overcast
5:53 PM 27.0 °F 20.5 °F 26.1 °F 96% 30.06 in 2.5 mi SSE 5.8 mph - N/A   Overcast
6:28 PM 26.6 °F 21.2 °F 26.6 °F 100% 30.02 in 3.0 mi SE 4.6 mph - N/A   Overcast
6:53 PM 27.0 °F - 26.1 °F 96% 30.09 in 5.0 mi Calm Calm - N/A   Overcast
7:11 PM 26.6 °F - 26.6 °F 100% 30.05 in 5.0 mi Calm Calm - N/A   Overcast
7:53 PM 27.0 °F - 26.1 °F 96% 30.12 in 6.0 mi Calm Calm - N/A   Overcast
8:24 PM 26.6 °F - 26.6 °F 100% 30.08 in 7.0 mi Calm Calm - N/A   Overcast
8:53 PM 28.0 °F 22.8 °F 25.0 °F 88% 30.13 in 8.0 mi West 4.6 mph - N/A   Overcast
9:26 PM 28.4 °F 20.4 °F 24.8 °F 86% 30.09 in 10.0 mi WNW 8.1 mph - N/A   Overcast
9:53 PM 28.0 °F 22.8 °F 25.0 °F 88% 30.14 in 10.0 mi WSW 4.6 mph - N/A   Overcast
10:53 PM 28.0 °F 21.7 °F 25.0 °F 88% 30.16 in 10.0 mi West 5.8 mph - N/A   Overcast
11:53 PM 28.0 °F 20.0 °F 25.0 °F 88% 30.17 in 10.0 mi West 8.1 mph - N/A   Overcast